Time,TemperatureF,DewpointF,PressureIn,WindDirection,WindDirectionDegrees,WindSpeedMPH,WindSpeedGustMPH,Humidity,HourlyPrecipIn,Conditions,Clouds,dailyrainin,SoftwareType,DateUTC
2013-01-22 00:00:00,8.2,-1.1,30.18,WNW,292,10.5,15.0,65,0.00,CLR,SKC,0.00,WeatherDisplay:10.37,2013-01-22 05:00:00,
2013-01-22 00:01:00,8.2,-1.1,30.18,WNW,292,10.5,10.5,65,0.00,CLR,SKC,0.00,WeatherDisplay:10.37,2013-01-22 05:01:00,
2013-01-22 00:06:00,8.1,-1.3,30.19,WNW,292,8.4,20.7,65,0.00,CLR,SKC,0.00,WeatherDisplay:10.37,2013-01-22 05:06:00,
2013-01-22 00:11:00,8.1,-1.3,30.19,WSW,248,10.6,17.3,65,0.00,CLR,SKC,0.00,WeatherDisplay:10.37,2013-01-22 05:11:00,
2013-01-22 00:16:00,8.1,-1.0,30.18,West,270,12.0,12.7,66,0.00,CLR,SKC,0.00,WeatherDisplay:10.37,2013-01-22 05:16:00,
2013-01-22 00:21:00,7.9,-1.1,30.19,West,270,8.4,12.7,66,0.00,CLR,SKC,0.00,WeatherDisplay:10.37,2013-01-22 05:21:00,
2013-01-22 00:26:00,7.9,-1.1,30.19,West,270,10.8,18.4,66,0.00,CLR,SKC,0.00,WeatherDisplay:10.37,2013-01-22 05:26:00,
2013-01-22 00:31:00,7.7,-1.0,30.19,West,270,8.1,10.4,67,0.00,CLR,SKC,0.00,WeatherDisplay:10.37,2013-01-22 05:31:00,
2013-01-22 00:36:00,7.5,-1.2,30.18,West,270,10.0,16.1,67,0.00,CLR,SKC,0.00,WeatherDisplay:10.37,2013-01-22 05:36:00,
2013-01-22 00:41:00,7.5,-1.2,30.19,WSW,248,11.5,12.7,67,0.00,CLR,SKC,0.00,WeatherDisplay:10.37,2013-01-22 05:41:00,
2013-01-22 00:46:00,7.5,-1.2,30.18,SW,225,5.4,12.7,67,0.00,CLR,SKC,0.00,WeatherDisplay:10.37,2013-01-22 05:46:00,
2013-01-22 00:51:00,7.3,-1.3,30.18,West,270,10.3,17.3,67,0.00,CLR,SKC,0.00,WeatherDisplay:10.37,2013-01-22 05:51:00,
2013-01-22 00:56:00,7.2,-1.5,30.19,SW,225,4.3,12.7,67,0.00,CLR,SKC,0.00,WeatherDisplay:10.37,2013-01-22 05:56:00,
2013-01-22 01:01:00,7.2,-1.2,30.18,West,270,6.0,9.6,68,0.00,CLR,SKC,0.00,WeatherDisplay:10.37,2013-01-22 06:01:00,
2013-01-22 01:06:00,7.0,-1.4,30.18,WNW,292,8.7,11.5,68,0.00,CLR,SKC,0.00,WeatherDisplay:10.37,2013-01-22 06:06:00,
2013-01-22 01:11:00,7.0,-1.4,30.18,WNW,292,6.5,6.9,68,0.00,CLR,SKC,0.00,WeatherDisplay:10.37,2013-01-22 06:11:00,
2013-01-22 01:16:00,7.0,-1.4,30.18,West,270,7.2,11.5,68,0.00,CLR,SKC,0.00,WeatherDisplay:10.37,2013-01-22 06:16:00,
2013-01-22 01:21:00,7.0,-1.4,30.18,West,270,7.9,11.5,68,0.00,CLR,SKC,0.00,WeatherDisplay:10.37,2013-01-22 06:21:00,
2013-01-22 01:26:00,6.6,-1.7,30.18,West,270,8.7,10.4,68,0.00,CLR,SKC,0.00,WeatherDisplay:10.37,2013-01-22 06:26:00,
2013-01-22 01:31:00,6.6,-1.4,30.18,SSW,202,7.2,12.7,69,0.00,CLR,SKC,0.00,WeatherDisplay:10.37,2013-01-22 06:31:00,
2013-01-22 01:36:00,6.6,-1.4,30.18,West,270,9.2,12.7,69,0.00,CLR,SKC,0.00,WeatherDisplay:10.37,2013-01-22 06:36:00,
2013-01-22 01:41:00,6.6,-1.4,30.18,SW,225,8.0,10.4,69,0.00,CLR,SKC,0.00,WeatherDisplay:10.37,2013-01-22 06:41:00,
2013-01-22 01:46:00,6.6,-1.4,30.18,West,270,11.9,18.4,69,0.00,CLR,SKC,0.00,WeatherDisplay:10.37,2013-01-22 06:46:00,
2013-01-22 01:51:00,6.4,-1.6,30.18,WNW,292,6.2,6.9,69,0.00,CLR,SKC,0.00,WeatherDisplay:10.37,2013-01-22 06:51:00,
2013-01-22 01:56:00,6.4,-1.6,30.18,West,270,6.3,12.7,69,0.00,CLR,SKC,0.00,WeatherDisplay:10.37,2013-01-22 06:56:00,
2013-01-22 02:01:00,6.4,-1.6,30.19,WSW,248,8.2,10.4,69,0.00,CLR,SKC,0.00,WeatherDisplay:10.37,2013-01-22 07:01:00,
2013-01-22 02:06:00,6.4,-1.6,30.18,WSW,248,11.4,18.4,69,0.00,CLR,SKC,0.00,WeatherDisplay:10.37,2013-01-22 07:06:00,
2013-01-22 02:11:00,6.4,-1.6,30.19,West,270,4.6,9.2,69,0.00,CLR,SKC,0.00,WeatherDisplay:10.37,2013-01-22 07:11:00,
2013-01-22 02:16:00,6.4,-1.6,30.18,WNW,292,6.3,9.2,69,0.00,CLR,SKC,0.00,WeatherDisplay:10.37,2013-01-22 07:16:00,
2013-01-22 02:21:00,6.4,-1.3,30.19,West,270,8.4,14.1,70,0.00,CLR,SKC,0.00,WeatherDisplay:10.37,2013-01-22 07:21:00,
2013-01-22 02:26:00,6.4,-1.3,30.18,West,270,6.7,9.2,70,0.00,CLR,SKC,0.00,WeatherDisplay:10.37,2013-01-22 07:26:00,
2013-01-22 02:31:00,6.4,-1.3,30.20,West,270,6.5,11.5,70,0.00,CLR,SKC,0.00,WeatherDisplay:10.37,2013-01-22 07:31:00,
2013-01-22 02:36:00,6.3,-1.4,30.19,West,270,9.9,13.8,70,0.00,CLR,SKC,0.00,WeatherDisplay:10.37,2013-01-22 07:36:00,
2013-01-22 02:41:00,6.3,-1.4,30.20,West,270,8.5,10.4,70,0.00,CLR,SKC,0.00,WeatherDisplay:10.37,2013-01-22 07:41:00,
2013-01-22 02:46:00,6.1,-1.3,30.20,WNW,292,7.2,13.0,71,0.00,CLR,SKC,0.00,WeatherDisplay:10.37,2013-01-22 07:46:00,
2013-01-22 02:51:00,6.1,-1.3,30.20,West,270,8.0,13.8,71,0.00,CLR,SKC,0.00,WeatherDisplay:10.37,2013-01-22 07:51:00,
2013-01-22 02:56:00,6.1,-1.3,30.20,WSW,248,9.2,11.5,71,0.00,CLR,SKC,0.00,WeatherDisplay:10.37,2013-01-22 07:56:00,
2013-01-22 03:01:00,6.1,-1.3,30.20,West,270,8.9,13.8,71,0.00,CLR,SKC,0.00,WeatherDisplay:10.37,2013-01-22 08:01:00,
2013-01-22 03:06:00,6.1,-1.3,30.20,West,270,7.6,11.5,71,0.00,CLR,SKC,0.00,WeatherDisplay:10.37,2013-01-22 08:06:00,
2013-01-22 03:11:00,6.1,-1.3,30.21,WNW,292,8.6,12.7,71,0.00,CLR,SKC,0.00,WeatherDisplay:10.37,2013-01-22 08:11:00,
2013-01-22 03:16:00,5.9,-1.5,30.20,SW,225,8.1,17.3,71,0.00,CLR,SKC,0.00,WeatherDisplay:10.37,2013-01-22 08:16:00,
2013-01-22 03:21:00,5.9,-1.5,30.20,SW,225,5.8,9.2,71,0.00,CLR,SKC,0.00,WeatherDisplay:10.37,2013-01-22 08:21:00,
2013-01-22 03:26:00,5.7,-1.7,30.20,West,270,7.8,18.4,71,0.00,CLR,SKC,0.00,WeatherDisplay:10.37,2013-01-22 08:26:00,
2013-01-22 03:31:00,5.7,-1.7,30.21,West,270,6.4,8.1,71,0.00,CLR,SKC,0.00,WeatherDisplay:10.37,2013-01-22 08:31:00,
2013-01-22 03:36:00,5.7,-1.7,30.20,West,270,9.3,12.7,71,0.00,CLR,SKC,0.00,WeatherDisplay:10.37,2013-01-22 08:36:00,
2013-01-22 03:41:00,5.7,-1.7,30.21,WSW,248,5.9,11.2,71,0.00,CLR,SKC,0.00,WeatherDisplay:10.37,2013-01-22 08:41:00,
2013-01-22 03:46:00,5.5,-1.5,30.20,West,270,5.9,14.3,72,0.00,CLR,SKC,0.00,WeatherDisplay:10.37,2013-01-22 08:46:00,
2013-01-22 03:51:00,5.5,-1.5,30.21,WNW,292,7.2,9.2,72,0.00,CLR,SKC,0.00,WeatherDisplay:10.37,2013-01-22 08:51:00,
2013-01-22 03:56:00,5.5,-1.5,30.20,West,270,8.8,12.7,72,0.00,CLR,SKC,0.00,WeatherDisplay:10.37,2013-01-22 08:56:00,
2013-01-22 04:01:00,5.5,-1.5,30.20,SW,225,5.1,10.4,72,0.00,CLR,SKC,0.00,WeatherDisplay:10.37,2013-01-22 09:01:00,
2013-01-22 04:06:00,5.5,-1.5,30.21,WSW,248,7.3,9.4,72,0.00,CLR,SKC,0.00,WeatherDisplay:10.37,2013-01-22 09:06:00,
2013-01-22 04:11:00,5.5,-1.5,30.21,WNW,292,9.1,11.5,72,0.00,CLR,SKC,0.00,WeatherDisplay:10.37,2013-01-22 09:11:00,
2013-01-22 04:16:00,5.5,-1.5,30.21,West,270,8.3,12.7,72,0.00,CLR,SKC,0.00,WeatherDisplay:10.37,2013-01-22 09:16:00,
2013-01-22 04:21:00,5.5,-1.5,30.21,West,270,8.7,11.5,72,0.00,CLR,SKC,0.00,WeatherDisplay:10.37,2013-01-22 09:21:00,
2013-01-22 04:26:00,5.5,-1.5,30.21,SW,225,4.0,10.4,72,0.00,CLR,SKC,0.00,WeatherDisplay:10.37,2013-01-22 09:26:00,
2013-01-22 04:31:00,5.4,-1.7,30.21,SW,225,4.0,5.8,72,0.00,CLR,SKC,0.00,WeatherDisplay:10.37,2013-01-22 09:31:00,
2013-01-22 04:36:00,5.5,-1.5,30.21,West,270,7.5,12.7,72,0.00,CLR,SKC,0.00,WeatherDisplay:10.37,2013-01-22 09:36:00,
2013-01-22 04:41:00,5.4,-1.7,30.21,West,270,5.1,10.4,72,0.00,CLR,SKC,0.00,WeatherDisplay:10.37,2013-01-22 09:41:00,
2013-01-22 04:46:00,5.4,-1.7,30.21,West,270,8.3,13.8,72,0.00,CLR,SKC,0.00,WeatherDisplay:10.37,2013-01-22 09:46:00,
2013-01-22 04:51:00,5.4,-1.7,30.21,West,270,4.0,8.1,72,0.00,CLR,SKC,0.00,WeatherDisplay:10.37,2013-01-22 09:51:00,
2013-01-22 04:56:00,5.4,-1.7,30.21,West,270,7.5,10.4,72,0.00,CLR,SKC,0.00,WeatherDisplay:10.37,2013-01-22 09:56:00,
2013-01-22 05:01:00,5.4,-1.7,30.22,WNW,292,7.9,11.5,72,0.00,CLR,SKC,0.00,WeatherDisplay:10.37,2013-01-22 10:01:00,
2013-01-22 05:06:00,5.2,-1.9,30.22,SW,225,3.3,4.6,72,0.00,CLR,SKC,0.00,WeatherDisplay:10.37,2013-01-22 10:06:00,
2013-01-22 05:11:00,5.2,-1.9,30.21,West,270,6.6,9.2,72,0.00,CLR,SKC,0.00,WeatherDisplay:10.37,2013-01-22 10:11:00,
2013-01-22 05:16:00,5.2,-1.6,30.22,WSW,248,7.1,8.1,73,0.00,CLR,SKC,0.00,WeatherDisplay:10.37,2013-01-22 10:16:00,
2013-01-22 05:21:00,5.2,-1.6,30.22,West,270,4.6,6.9,73,0.00,CLR,SKC,0.00,WeatherDisplay:10.37,2013-01-22 10:21:00,
2013-01-22 05:26:00,5.2,-1.6,30.22,West,270,5.2,10.4,73,0.00,CLR,SKC,0.00,WeatherDisplay:10.37,2013-01-22 10:26:00,
2013-01-22 05:31:00,5.2,-1.6,30.23,WSW,248,5.0,6.9,73,0.00,CLR,SKC,0.00,WeatherDisplay:10.37,2013-01-22 10:31:00,
2013-01-22 05:36:00,5.2,-1.6,30.22,SW,225,6.4,11.5,73,0.00,CLR,SKC,0.00,WeatherDisplay:10.37,2013-01-22 10:36:00,
2013-01-22 05:41:00,5.2,-1.6,30.23,West,270,6.7,9.6,73,0.00,CLR,SKC,0.00,WeatherDisplay:10.37,2013-01-22 10:41:00,
2013-01-22 05:46:00,5.2,-1.6,30.22,SW,225,8.3,10.4,73,0.00,CLR,SKC,0.00,WeatherDisplay:10.37,2013-01-22 10:46:00,
2013-01-22 05:51:00,5.2,-1.6,30.23,West,270,4.8,8.1,73,0.00,CLR,SKC,0.00,WeatherDisplay:10.37,2013-01-22 10:51:00,
2013-01-22 05:56:00,5.2,-1.6,30.23,West,270,3.4,5.8,73,0.00,CLR,SKC,0.00,WeatherDisplay:10.37,2013-01-22 10:56:00,
2013-01-22 06:01:00,5.0,-1.8,30.23,West,270,9.2,13.8,73,0.00,CLR,SKC,0.00,WeatherDisplay:10.37,2013-01-22 11:01:00,
2013-01-22 06:06:00,5.0,-1.8,30.23,West,270,4.7,8.1,73,0.00,CLR,SKC,0.00,WeatherDisplay:10.37,2013-01-22 11:06:00,
2013-01-22 06:11:00,5.0,-1.8,30.23,WNW,292,4.1,6.9,73,0.00,CLR,SKC,0.00,WeatherDisplay:10.37,2013-01-22 11:11:00,
2013-01-22 06:16:00,5.0,-1.8,30.23,West,270,4.3,6.9,73,0.00,CLR,SKC,0.00,WeatherDisplay:10.37,2013-01-22 11:16:00,
2013-01-22 06:21:00,5.0,-1.8,30.23,West,270,6.7,11.8,73,0.00,CLR,SKC,0.00,WeatherDisplay:10.37,2013-01-22 11:21:00,
2013-01-22 06:26:00,5.0,-1.8,30.23,WNW,292,4.8,6.9,73,0.00,CLR,SKC,0.00,WeatherDisplay:10.37,2013-01-22 11:26:00,
2013-01-22 06:32:00,5.2,-1.6,30.23,WSW,248,5.3,6.9,73,0.00,CLR,SKC,0.00,WeatherDisplay:10.37,2013-01-22 11:32:00,
2013-01-22 06:37:00,5.0,-1.8,30.23,West,270,6.2,10.4,73,0.00,CLR,SKC,0.00,WeatherDisplay:10.37,2013-01-22 11:37:00,
2013-01-22 06:42:00,5.0,-1.8,30.23,West,270,3.5,5.8,73,0.00,CLR,SKC,0.00,WeatherDisplay:10.37,2013-01-22 11:42:00,
2013-01-22 06:47:00,4.8,-1.9,30.24,West,270,5.7,9.2,73,0.00,CLR,SKC,0.00,WeatherDisplay:10.37,2013-01-22 11:47:00,
2013-01-22 06:52:00,4.8,-1.7,30.23,West,270,1.1,3.5,74,0.00,CLR,SKC,0.00,WeatherDisplay:10.37,2013-01-22 11:52:00,
2013-01-22 06:57:00,4.8,-1.7,30.24,WSW,248,4.5,5.8,74,0.00,CLR,SKC,0.00,WeatherDisplay:10.37,2013-01-22 11:57:00,
2013-01-22 07:02:00,4.8,-1.7,30.24,WSW,248,5.3,8.3,74,0.00,CLR,SKC,0.00,WeatherDisplay:10.37,2013-01-22 12:02:00,
2013-01-22 07:07:00,4.8,-1.7,30.24,West,270,2.9,4.5,74,0.00,CLR,SKC,0.00,WeatherDisplay:10.37,2013-01-22 12:07:00,
2013-01-22 07:12:00,4.8,-1.7,30.25,West,270,7.7,10.4,74,0.00,CLR,SKC,0.00,WeatherDisplay:10.37,2013-01-22 12:12:00,
2013-01-22 07:17:00,4.8,-1.7,30.25,WNW,292,4.5,5.8,74,0.00,CLR,SKC,0.00,WeatherDisplay:10.37,2013-01-22 12:17:00,
2013-01-22 07:22:00,4.8,-1.7,30.25,West,270,6.6,11.5,74,0.00,CLR,SKC,0.00,WeatherDisplay:10.37,2013-01-22 12:22:00,
2013-01-22 07:27:00,4.8,-1.7,30.25,West,270,2.9,6.3,74,0.00,CLR,SKC,0.00,WeatherDisplay:10.37,2013-01-22 12:27:00,
2013-01-22 07:32:00,4.8,-1.7,30.25,WSW,248,3.4,4.6,74,0.00,CLR,SKC,0.00,WeatherDisplay:10.37,2013-01-22 12:32:00,
2013-01-22 07:37:00,4.6,-1.8,30.25,West,270,3.3,4.6,74,0.00,CLR,SKC,0.00,WeatherDisplay:10.37,2013-01-22 12:37:00,
2013-01-22 07:42:00,4.6,-1.8,30.25,WSW,248,4.8,8.1,74,0.00,CLR,SKC,0.00,WeatherDisplay:10.37,2013-01-22 12:42:00,
2013-01-22 07:47:00,4.6,-1.8,30.26,West,270,0.2,1.8,74,0.00,CLR,SKC,0.00,WeatherDisplay:10.37,2013-01-22 12:47:00,
2013-01-22 07:52:00,4.6,-1.8,30.26,West,270,5.0,5.8,74,0.00,CLR,SKC,0.00,WeatherDisplay:10.37,2013-01-22 12:52:00,
2013-01-22 07:57:00,4.6,-1.8,30.26,West,270,8.4,10.4,74,0.00,CLR,SKC,0.00,WeatherDisplay:10.37,2013-01-22 12:57:00,
2013-01-22 08:02:00,4.6,-1.8,30.26,West,270,2.4,8.1,74,0.00,CLR,SKC,0.00,WeatherDisplay:10.37,2013-01-22 13:02:00,
2013-01-22 08:07:00,4.8,-1.4,30.26,West,270,2.1,3.5,75,0.00,CLR,SKC,0.00,WeatherDisplay:10.37,2013-01-22 13:07:00,
2013-01-22 08:12:00,5.0,-1.2,30.26,West,270,4.3,9.2,75,0.00,CLR,SKC,0.00,WeatherDisplay:10.37,2013-01-22 13:12:00,
2013-01-22 08:18:00,4.8,-1.7,30.26,West,270,3.7,6.9,74,0.00,CLR,SKC,0.00,WeatherDisplay:10.37,2013-01-22 13:18:00,
2013-01-22 08:23:00,4.8,-1.4,30.26,WSW,248,6.1,6.1,75,0.00,CLR,SKC,0.00,WeatherDisplay:10.37,2013-01-22 13:23:00,
2013-01-22 08:28:00,5.0,-1.2,30.26,West,270,4.4,9.2,75,0.00,CLR,SKC,0.00,WeatherDisplay:10.37,2013-01-22 13:28:00,
2013-01-22 08:33:00,5.0,-1.2,30.26,West,270,3.5,8.1,75,0.00,CLR,SKC,0.00,WeatherDisplay:10.37,2013-01-22 13:33:00,
2013-01-22 08:38:00,5.2,-1.0,30.26,West,270,4.4,5.8,75,0.00,CLR,SKC,0.00,WeatherDisplay:10.37,2013-01-22 13:38:00,
2013-01-22 08:43:00,5.2,-1.0,30.26,West,270,3.8,4.6,75,0.00,CLR,SKC,0.00,WeatherDisplay:10.37,2013-01-22 13:43:00,
2013-01-22 08:48:00,5.4,-0.8,30.26,WNW,292,5.0,10.4,75,0.00,CLR,SKC,0.00,WeatherDisplay:10.37,2013-01-22 13:48:00,
2013-01-22 08:53:00,5.5,-0.7,30.26,West,270,3.5,6.9,75,0.00,CLR,SKC,0.00,WeatherDisplay:10.37,2013-01-22 13:53:00,
2013-01-22 08:58:00,5.5,-0.7,30.26,West,270,2.4,3.5,75,0.00,CLR,SKC,0.00,WeatherDisplay:10.37,2013-01-22 13:58:00,
2013-01-22 09:03:00,5.7,-0.5,30.26,West,270,5.7,10.4,75,0.00,CLR,SKC,0.00,WeatherDisplay:10.37,2013-01-22 14:03:00,
2013-01-22 09:08:00,5.7,-0.5,30.27,West,270,8.0,11.5,75,0.00,CLR,SKC,0.00,WeatherDisplay:10.37,2013-01-22 14:08:00,
2013-01-22 09:13:00,5.9,-0.3,30.27,West,270,7.2,8.1,75,0.00,CLR,SKC,0.00,WeatherDisplay:10.37,2013-01-22 14:13:00,
2013-01-22 09:18:00,6.1,-0.1,30.27,West,270,8.0,9.2,75,0.00,CLR,SKC,0.00,WeatherDisplay:10.37,2013-01-22 14:18:00,
2013-01-22 09:23:00,6.4,-0.1,30.28,WNW,292,7.6,12.7,74,0.00,CLR,SKC,0.00,WeatherDisplay:10.37,2013-01-22 14:23:00,
2013-01-22 09:28:00,6.6,0.1,30.28,West,270,4.5,6.9,74,0.00,CLR,SKC,0.00,WeatherDisplay:10.37,2013-01-22 14:28:00,
2013-01-22 09:33:00,6.6,0.1,30.28,West,270,6.2,9.2,74,0.00,CLR,SKC,0.00,WeatherDisplay:10.37,2013-01-22 14:33:00,
2013-01-22 09:38:00,7.0,0.1,30.28,West,270,3.7,5.8,73,0.00,CLR,SKC,0.00,WeatherDisplay:10.37,2013-01-22 14:38:00,
2013-01-22 09:43:00,7.0,0.1,30.28,NW,315,5.7,9.2,73,0.00,CLR,SKC,0.00,WeatherDisplay:10.37,2013-01-22 14:43:00,
2013-01-22 09:48:00,7.3,0.5,30.28,West,270,2.4,5.8,73,0.00,CLR,SKC,0.00,WeatherDisplay:10.37,2013-01-22 14:48:00,
2013-01-22 09:53:00,7.5,0.7,30.28,WNW,292,4.5,8.1,73,0.00,CLR,SKC,0.00,WeatherDisplay:10.37,2013-01-22 14:53:00,
2013-01-22 09:58:00,7.9,1.0,30.28,WNW,292,4.7,8.1,73,0.00,CLR,SKC,0.00,WeatherDisplay:10.37,2013-01-22 14:58:00,
2013-01-22 10:03:00,8.4,1.5,30.29,West,270,7.8,8.7,73,0.00,CLR,SKC,0.00,WeatherDisplay:10.37,2013-01-22 15:03:00,
2013-01-22 10:08:00,9.0,1.8,30.29,West,270,3.7,7.4,72,0.00,CLR,SKC,0.00,WeatherDisplay:10.37,2013-01-22 15:08:00,
2013-01-22 10:13:00,9.3,2.1,30.29,West,270,3.6,5.8,72,0.00,CLR,SKC,0.00,WeatherDisplay:10.37,2013-01-22 15:13:00,
2013-01-22 10:18:00,9.7,2.2,30.29,West,270,5.3,6.9,71,0.00,CLR,SKC,0.00,WeatherDisplay:10.37,2013-01-22 15:18:00,
2013-01-22 10:23:00,10.0,2.5,30.29,WSW,248,8.0,13.0,71,0.00,CLR,SKC,0.00,WeatherDisplay:10.37,2013-01-22 15:23:00,
2013-01-22 10:28:00,10.2,2.4,30.29,West,270,4.6,6.9,70,0.00,CLR,SKC,0.00,WeatherDisplay:10.37,2013-01-22 15:28:00,
2013-01-22 10:33:00,10.6,2.7,30.30,WNW,292,4.4,10.4,70,0.00,CLR,SKC,0.00,WeatherDisplay:10.37,2013-01-22 15:33:00,
2013-01-22 10:38:00,11.1,2.9,30.30,WNW,292,8.8,10.4,69,0.00,CLR,SKC,0.00,WeatherDisplay:10.37,2013-01-22 15:38:00,
2013-01-22 10:43:00,11.5,3.0,30.30,West,270,7.9,10.4,68,0.00,CLR,SKC,0.00,WeatherDisplay:10.37,2013-01-22 15:43:00,
2013-01-22 10:48:00,11.7,3.1,30.30,WSW,248,9.4,11.5,68,0.00,CLR,SKC,0.00,WeatherDisplay:10.37,2013-01-22 15:48:00,
2013-01-22 10:53:00,12.0,3.5,30.31,SE,135,3.9,8.1,68,0.00,CLR,SKC,0.00,WeatherDisplay:10.37,2013-01-22 15:53:00,
2013-01-22 10:58:00,12.2,3.3,30.30,West,270,5.8,9.2,67,0.00,CLR,SKC,0.00,WeatherDisplay:10.37,2013-01-22 15:58:00,
2013-01-22 11:03:00,12.4,3.5,30.30,West,270,5.4,8.1,67,0.00,CLR,SKC,0.00,WeatherDisplay:10.37,2013-01-22 16:03:00,
2013-01-22 11:08:00,12.6,3.3,30.31,WSW,248,6.5,6.9,66,0.00,CLR,SKC,0.00,WeatherDisplay:10.37,2013-01-22 16:08:00,
2013-01-22 11:13:00,12.6,3.3,30.30,SSW,202,8.4,11.5,66,0.00,CLR,SKC,0.00,WeatherDisplay:10.37,2013-01-22 16:13:00,
2013-01-22 11:18:00,12.4,3.2,30.31,WSW,248,2.5,6.0,66,0.00,CLR,SKC,0.00,WeatherDisplay:10.37,2013-01-22 16:18:00,
2013-01-22 11:23:00,12.2,2.7,30.30,West,270,6.9,10.4,65,0.00,CLR,SKC,0.00,WeatherDisplay:10.37,2013-01-22 16:23:00,
2013-01-22 11:28:00,12.0,2.5,30.30,West,270,8.2,9.2,65,0.00,CLR,SKC,0.00,WeatherDisplay:10.37,2013-01-22 16:28:00,
2013-01-22 11:33:00,11.8,2.3,30.30,West,270,7.7,11.5,65,0.00,CLR,SKC,0.00,WeatherDisplay:10.37,2013-01-22 16:33:00,
2013-01-22 11:38:00,12.0,2.5,30.30,WSW,248,8.4,10.1,65,0.00,CLR,SKC,0.00,WeatherDisplay:10.37,2013-01-22 16:38:00,
2013-01-22 11:43:00,12.4,2.8,30.30,WNW,292,6.8,9.8,65,0.00,CLR,SKC,0.00,WeatherDisplay:10.37,2013-01-22 16:43:00,
2013-01-22 11:48:00,12.7,2.8,30.30,SW,225,8.5,12.7,64,0.00,CLR,SKC,0.00,WeatherDisplay:10.37,2013-01-22 16:48:00,
2013-01-22 11:53:00,12.7,2.8,30.30,WSW,248,3.8,7.8,64,0.00,CLR,SKC,0.00,WeatherDisplay:10.37,2013-01-22 16:53:00,
2013-01-22 11:58:00,13.1,3.2,30.30,West,270,8.4,11.5,64,0.00,CLR,SKC,0.00,WeatherDisplay:10.37,2013-01-22 16:58:00,
2013-01-22 12:03:00,12.7,2.5,30.29,WNW,292,4.8,5.8,63,0.00,CLR,SKC,0.00,WeatherDisplay:10.37,2013-01-22 17:03:00,
2013-01-22 12:08:00,12.7,2.5,30.29,West,270,7.4,9.2,63,0.00,CLR,SKC,0.00,WeatherDisplay:10.37,2013-01-22 17:08:00,
2013-01-22 12:13:00,12.7,2.5,30.29,WSW,248,4.0,5.8,63,0.00,CLR,SKC,0.00,WeatherDisplay:10.37,2013-01-22 17:13:00,
2013-01-22 12:18:00,13.1,2.9,30.29,WNW,292,6.0,8.1,63,0.00,CLR,SKC,0.00,WeatherDisplay:10.37,2013-01-22 17:18:00,
2013-01-22 12:23:00,13.3,3.0,30.28,WNW,292,5.2,6.9,63,0.00,CLR,SKC,0.00,WeatherDisplay:10.37,2013-01-22 17:23:00,
2013-01-22 12:28:00,13.6,3.0,30.28,WSW,248,6.6,10.4,62,0.00,CLR,SKC,0.00,WeatherDisplay:10.37,2013-01-22 17:28:00,
2013-01-22 12:33:00,13.6,3.0,30.28,WNW,292,6.1,9.2,62,0.00,CLR,SKC,0.00,WeatherDisplay:10.37,2013-01-22 17:33:00,
2013-01-22 12:38:00,13.8,2.8,30.27,WNW,292,6.9,10.4,61,0.00,CLR,SKC,0.00,WeatherDisplay:10.37,2013-01-22 17:38:00,
2013-01-22 12:43:00,14.2,3.2,30.28,WNW,292,4.8,8.1,61,0.00,CLR,SKC,0.00,WeatherDisplay:10.37,2013-01-22 17:43:00,
2013-01-22 12:48:00,14.2,2.8,30.27,WNW,292,7.9,10.4,60,0.00,CLR,SKC,0.00,WeatherDisplay:10.37,2013-01-22 17:48:00,
2013-01-22 12:53:00,14.2,2.8,30.26,SW,225,7.8,10.4,60,0.00,CLR,SKC,0.00,WeatherDisplay:10.37,2013-01-22 17:53:00,
2013-01-22 12:58:00,14.4,3.0,30.26,WSW,248,6.7,11.5,60,0.00,CLR,SKC,0.00,WeatherDisplay:10.37,2013-01-22 17:58:00,
2013-01-22 13:03:00,14.5,3.2,30.26,West,270,4.4,10.4,60,0.00,CLR,SKC,0.00,WeatherDisplay:10.37,2013-01-22 18:03:00,
2013-01-22 13:08:00,14.7,3.3,30.26,WNW,292,2.0,4.6,60,0.00,CLR,SKC,0.00,WeatherDisplay:10.37,2013-01-22 18:08:00,
2013-01-22 13:13:00,14.9,3.1,30.26,West,270,5.2,6.9,59,0.00,CLR,SKC,0.00,WeatherDisplay:10.37,2013-01-22 18:13:00,
2013-01-22 13:18:00,15.1,3.3,30.26,WSW,248,5.8,9.2,59,0.00,CLR,SKC,0.00,WeatherDisplay:10.37,2013-01-22 18:18:00,
2013-01-22 13:23:00,15.3,3.5,30.25,WSW,248,5.9,10.4,59,0.00,CLR,SKC,0.00,WeatherDisplay:10.37,2013-01-22 18:23:00,
2013-01-22 13:28:00,15.6,3.4,30.25,WSW,248,7.5,10.4,58,0.00,CLR,SKC,0.00,WeatherDisplay:10.37,2013-01-22 18:28:00,
2013-01-22 13:33:00,15.4,2.9,30.24,West,270,3.6,8.1,57,0.00,CLR,SKC,0.00,WeatherDisplay:10.37,2013-01-22 18:33:00,
2013-01-22 13:38:00,15.4,3.3,30.25,West,270,4.1,8.1,58,0.00,CLR,SKC,0.00,WeatherDisplay:10.37,2013-01-22 18:38:00,
2013-01-22 13:43:00,15.6,3.4,30.25,SW,225,7.4,11.5,58,0.00,CLR,SKC,0.00,WeatherDisplay:10.37,2013-01-22 18:43:00,
2013-01-22 13:48:00,15.6,3.1,30.25,WNW,292,6.5,10.4,57,0.00,CLR,SKC,0.00,WeatherDisplay:10.37,2013-01-22 18:48:00,
2013-01-22 13:53:00,15.6,3.1,30.25,NW,315,5.3,13.0,57,0.00,CLR,SKC,0.00,WeatherDisplay:10.37,2013-01-22 18:53:00,
2013-01-22 13:58:00,15.3,2.3,30.25,West,270,7.4,8.1,56,0.00,CLR,SKC,0.00,WeatherDisplay:10.37,2013-01-22 18:58:00,
2013-01-22 14:03:00,14.9,2.0,30.26,West,270,8.7,11.8,56,0.00,CLR,SKC,0.00,WeatherDisplay:10.37,2013-01-22 19:03:00,
2013-01-22 14:08:00,15.3,2.3,30.25,SSW,202,9.3,19.6,56,0.00,CLR,SKC,0.00,WeatherDisplay:10.37,2013-01-22 19:08:00,
2013-01-22 14:13:00,15.4,2.5,30.25,WSW,248,8.1,12.7,56,0.00,CLR,SKC,0.00,WeatherDisplay:10.37,2013-01-22 19:13:00,
2013-01-22 14:18:00,15.6,3.1,30.26,WNW,292,7.5,12.7,57,0.00,CLR,SKC,0.00,WeatherDisplay:10.37,2013-01-22 19:18:00,
2013-01-22 14:23:00,15.6,2.7,30.25,West,270,8.4,11.5,56,0.00,CLR,SKC,0.00,WeatherDisplay:10.37,2013-01-22 19:23:00,
2013-01-22 14:28:00,15.6,2.7,30.25,West,270,7.4,10.4,56,0.00,CLR,SKC,0.00,WeatherDisplay:10.37,2013-01-22 19:28:00,
2013-01-22 14:33:00,15.6,2.7,30.24,WSW,248,6.6,8.1,56,0.00,CLR,SKC,0.00,WeatherDisplay:10.37,2013-01-22 19:33:00,
2013-01-22 14:38:00,16.0,3.0,30.24,West,270,7.1,9.2,56,0.00,CLR,SKC,0.00,WeatherDisplay:10.37,2013-01-22 19:38:00,
2013-01-22 14:43:00,16.2,2.8,30.24,West,270,9.1,15.0,55,0.00,CLR,SKC,0.00,WeatherDisplay:10.37,2013-01-22 19:43:00,
2013-01-22 14:48:00,16.2,2.8,30.24,West,270,4.2,10.5,55,0.00,CLR,SKC,0.00,WeatherDisplay:10.37,2013-01-22 19:48:00,
2013-01-22 14:53:00,16.2,2.8,30.24,WSW,248,9.4,12.7,55,0.00,CLR,SKC,0.00,WeatherDisplay:10.37,2013-01-22 19:53:00,
2013-01-22 14:58:00,16.2,2.8,30.24,SW,225,9.9,10.4,55,0.00,CLR,SKC,0.00,WeatherDisplay:10.37,2013-01-22 19:58:00,
2013-01-22 15:03:00,16.2,2.8,30.24,WSW,248,5.3,8.5,55,0.00,CLR,SKC,0.00,WeatherDisplay:10.37,2013-01-22 20:03:00,
2013-01-22 15:08:00,16.2,2.8,30.24,West,270,6.0,9.2,55,0.00,CLR,SKC,0.00,WeatherDisplay:10.37,2013-01-22 20:08:00,
2013-01-22 15:13:00,16.3,2.6,30.24,WNW,292,9.1,11.5,54,0.00,CLR,SKC,0.00,WeatherDisplay:10.37,2013-01-22 20:13:00,
2013-01-22 15:18:00,16.3,2.6,30.24,WNW,292,4.5,9.2,54,0.00,CLR,SKC,0.00,WeatherDisplay:10.37,2013-01-22 20:18:00,
2013-01-22 15:23:00,16.3,2.6,30.25,West,270,6.1,10.4,54,0.00,CLR,SKC,0.00,WeatherDisplay:10.37,2013-01-22 20:23:00,
2013-01-22 15:28:00,16.3,2.6,30.24,WSW,248,6.9,6.9,54,0.00,CLR,SKC,0.00,WeatherDisplay:10.37,2013-01-22 20:28:00,
2013-01-22 15:33:00,16.3,2.6,30.24,SW,225,7.7,10.4,54,0.00,CLR,SKC,0.00,WeatherDisplay:10.37,2013-01-22 20:33:00,
2013-01-22 15:38:00,16.5,2.7,30.24,West,270,8.3,10.4,54,0.00,CLR,SKC,0.00,WeatherDisplay:10.37,2013-01-22 20:38:00,
2013-01-22 15:43:00,16.5,2.7,30.24,West,270,6.0,10.4,54,0.00,CLR,SKC,0.00,WeatherDisplay:10.37,2013-01-22 20:43:00,
2013-01-22 15:48:00,16.5,2.7,30.24,West,270,6.0,12.7,54,0.00,CLR,SKC,0.00,WeatherDisplay:10.37,2013-01-22 20:48:00,
2013-01-22 15:53:00,16.7,2.9,30.24,SW,225,3.2,3.5,54,0.00,CLR,SKC,0.00,WeatherDisplay:10.37,2013-01-22 20:53:00,
2013-01-22 15:58:00,16.9,3.1,30.24,WNW,292,5.6,11.5,54,0.00,CLR,SKC,0.00,WeatherDisplay:10.37,2013-01-22 20:58:00,
2013-01-22 16:03:00,16.7,2.9,30.24,SW,225,6.5,12.7,54,0.00,CLR,SKC,0.00,WeatherDisplay:10.37,2013-01-22 21:03:00,
2013-01-22 16:08:00,16.3,2.2,30.24,WSW,248,8.3,9.2,53,0.00,CLR,SKC,0.00,WeatherDisplay:10.37,2013-01-22 21:08:00,
2013-01-22 16:13:00,16.3,2.2,30.24,West,270,6.8,11.5,53,0.00,CLR,SKC,0.00,WeatherDisplay:10.37,2013-01-22 21:13:00,
2013-01-22 16:18:00,16.3,2.2,30.24,West,270,6.2,6.9,53,0.00,CLR,SKC,0.00,WeatherDisplay:10.37,2013-01-22 21:18:00,
2013-01-22 16:23:00,16.3,2.2,30.24,WSW,248,6.7,11.6,53,0.00,CLR,SKC,0.00,WeatherDisplay:10.37,2013-01-22 21:23:00,
2013-01-22 16:28:00,16.3,2.2,30.23,WSW,248,9.1,11.5,53,0.00,CLR,SKC,0.00,WeatherDisplay:10.37,2013-01-22 21:28:00,
2013-01-22 16:32:00,16.3,2.2,30.24,WSW,248,6.0,10.4,53,0.00,CLR,SKC,0.00,WeatherDisplay:10.37,2013-01-22 21:32:00,
2013-01-22 16:37:00,16.3,2.2,30.24,West,270,10.2,20.7,53,0.00,CLR,SKC,0.00,WeatherDisplay:10.37,2013-01-22 21:37:00,
2013-01-22 16:42:00,16.2,1.6,30.24,West,270,4.7,8.3,52,0.00,CLR,SKC,0.00,WeatherDisplay:10.37,2013-01-22 21:42:00,
2013-01-22 16:47:00,16.0,1.8,30.23,WNW,292,5.6,9.8,53,0.00,CLR,SKC,0.00,WeatherDisplay:10.37,2013-01-22 21:47:00,
2013-01-22 16:52:00,15.8,1.3,30.24,SW,225,5.9,9.2,52,0.00,CLR,SKC,0.00,WeatherDisplay:10.37,2013-01-22 21:52:00,
2013-01-22 16:57:00,15.8,1.7,30.23,SW,225,4.8,8.1,53,0.00,CLR,SKC,0.00,WeatherDisplay:10.37,2013-01-22 21:57:00,
2013-01-22 17:02:00,15.8,1.7,30.24,West,270,7.5,10.4,53,0.00,CLR,SKC,0.00,WeatherDisplay:10.37,2013-01-22 22:02:00,
2013-01-22 17:07:00,15.6,1.5,30.23,West,270,7.4,10.4,53,0.00,CLR,SKC,0.00,WeatherDisplay:10.37,2013-01-22 22:07:00,
2013-01-22 17:12:00,15.6,1.5,30.24,West,270,8.7,11.5,53,0.00,CLR,SKC,0.00,WeatherDisplay:10.37,2013-01-22 22:12:00,
2013-01-22 17:17:00,15.4,1.3,30.23,West,270,3.9,4.6,53,0.00,CLR,SKC,0.00,WeatherDisplay:10.37,2013-01-22 22:17:00,
2013-01-22 17:22:00,15.1,0.6,30.24,WNW,292,6.9,9.2,52,0.00,CLR,SKC,0.00,WeatherDisplay:10.37,2013-01-22 22:22:00,
2013-01-22 17:27:00,14.9,0.8,30.24,West,270,4.6,9.2,53,0.00,CLR,SKC,0.00,WeatherDisplay:10.37,2013-01-22 22:27:00,
2013-01-22 17:32:00,14.7,0.7,30.24,WSW,248,3.1,10.4,53,0.00,CLR,SKC,0.00,WeatherDisplay:10.37,2013-01-22 22:32:00,
2013-01-22 17:37:00,14.5,0.5,30.24,West,270,2.8,12.7,53,0.00,CLR,SKC,0.00,WeatherDisplay:10.37,2013-01-22 22:37:00,
2013-01-22 17:42:00,14.4,0.7,30.23,West,270,3.7,5.8,54,0.00,CLR,SKC,0.00,WeatherDisplay:10.37,2013-01-22 22:42:00,
2013-01-22 17:47:00,14.2,0.6,30.24,West,270,6.4,9.2,54,0.00,CLR,SKC,0.00,WeatherDisplay:10.37,2013-01-22 22:47:00,
2013-01-22 17:52:00,13.8,0.2,30.24,West,270,7.9,10.4,54,0.00,CLR,SKC,0.00,WeatherDisplay:10.37,2013-01-22 22:52:00,
2013-01-22 17:57:00,13.8,0.2,30.24,West,270,5.0,9.2,54,0.00,CLR,SKC,0.00,WeatherDisplay:10.37,2013-01-22 22:57:00,
2013-01-22 18:02:00,13.8,0.6,30.24,West,270,3.9,5.8,55,0.00,CLR,SKC,0.00,WeatherDisplay:10.37,2013-01-22 23:02:00,
2013-01-22 18:07:00,13.8,0.6,30.24,WSW,248,3.8,4.6,55,0.00,CLR,SKC,0.00,WeatherDisplay:10.37,2013-01-22 23:07:00,
2013-01-22 18:12:00,13.6,0.4,30.24,WNW,292,9.4,11.5,55,0.00,CLR,SKC,0.00,WeatherDisplay:10.37,2013-01-22 23:12:00,
2013-01-22 18:17:00,13.8,0.6,30.24,West,270,1.8,4.6,55,0.00,CLR,SKC,0.00,WeatherDisplay:10.37,2013-01-22 23:17:00,
2013-01-22 18:23:00,13.8,0.6,30.24,West,270,4.4,5.8,55,0.00,CLR,SKC,0.00,WeatherDisplay:10.37,2013-01-22 23:23:00,
2013-01-22 18:28:00,13.8,0.6,30.24,West,270,5.4,8.1,55,0.00,CLR,SKC,0.00,WeatherDisplay:10.37,2013-01-22 23:28:00,
2013-01-22 18:33:00,13.8,0.6,30.23,West,270,3.4,4.6,55,0.00,CLR,SKC,0.00,WeatherDisplay:10.37,2013-01-22 23:33:00,
2013-01-22 18:38:00,13.8,0.6,30.24,West,270,4.3,4.6,55,0.00,CLR,SKC,0.00,WeatherDisplay:10.37,2013-01-22 23:38:00,
2013-01-22 18:43:00,13.8,0.6,30.24,West,270,7.8,9.2,55,0.00,CLR,SKC,0.00,WeatherDisplay:10.37,2013-01-22 23:43:00,
2013-01-22 18:48:00,13.8,0.6,30.23,West,270,4.8,6.9,55,0.00,CLR,SKC,0.00,WeatherDisplay:10.37,2013-01-22 23:48:00,
2013-01-22 18:53:00,13.8,0.6,30.24,WSW,248,4.4,6.9,55,0.00,CLR,SKC,0.00,WeatherDisplay:10.37,2013-01-22 23:53:00,
2013-01-22 18:58:00,13.8,0.6,30.24,West,270,3.1,3.5,55,0.00,CLR,SKC,0.00,WeatherDisplay:10.37,2013-01-22 23:58:00,
2013-01-22 19:03:00,13.8,0.6,30.24,West,270,4.8,9.2,55,0.00,CLR,SKC,0.00,WeatherDisplay:10.37,2013-01-23 00:03:00,
2013-01-22 19:08:00,13.8,0.6,30.24,West,270,6.2,11.5,55,0.00,CLR,SKC,0.00,WeatherDisplay:10.37,2013-01-23 00:08:00,
2013-01-22 19:13:00,13.8,0.6,30.24,WSW,248,8.7,10.4,55,0.00,CLR,SKC,0.00,WeatherDisplay:10.37,2013-01-23 00:13:00,
2013-01-22 19:18:00,13.6,0.4,30.24,SW,225,8.1,10.4,55,0.00,CLR,SKC,0.00,WeatherDisplay:10.37,2013-01-23 00:18:00,
2013-01-22 19:23:00,13.6,0.4,30.24,West,270,4.1,6.9,55,0.00,CLR,SKC,0.00,WeatherDisplay:10.37,2013-01-23 00:23:00,
2013-01-22 19:28:00,13.6,0.4,30.24,WSW,248,6.8,9.2,55,0.00,CLR,SKC,0.00,WeatherDisplay:10.37,2013-01-23 00:28:00,
2013-01-22 19:33:00,13.6,0.4,30.23,WSW,248,3.7,5.8,55,0.00,CLR,SKC,0.00,WeatherDisplay:10.37,2013-01-23 00:33:00,
2013-01-22 19:38:00,13.6,0.8,30.23,West,270,5.1,9.2,56,0.00,CLR,SKC,0.00,WeatherDisplay:10.37,2013-01-23 00:38:00,
2013-01-22 19:43:00,13.5,0.7,30.23,West,270,2.6,8.0,56,0.00,CLR,SKC,0.00,WeatherDisplay:10.37,2013-01-23 00:43:00,
2013-01-22 19:48:00,13.3,0.5,30.23,SW,225,4.5,6.9,56,0.00,CLR,SKC,0.00,WeatherDisplay:10.37,2013-01-23 00:48:00,
2013-01-22 19:53:00,13.3,0.5,30.23,West,270,3.8,9.2,56,0.00,CLR,SKC,0.00,WeatherDisplay:10.37,2013-01-23 00:53:00,
2013-01-22 19:58:00,13.3,0.5,30.23,WNW,292,2.9,5.8,56,0.00,CLR,SKC,0.00,WeatherDisplay:10.37,2013-01-23 00:58:00,
2013-01-22 20:03:00,13.3,0.5,30.23,West,270,6.1,8.1,56,0.00,CLR,SKC,0.00,WeatherDisplay:10.37,2013-01-23 01:03:00,
2013-01-22 20:08:00,13.3,0.5,30.23,WNW,292,5.6,9.2,56,0.00,CLR,SKC,0.00,WeatherDisplay:10.37,2013-01-23 01:08:00,
2013-01-22 20:13:00,13.3,0.5,30.23,SW,225,4.5,8.1,56,0.00,CLR,SKC,0.00,WeatherDisplay:10.37,2013-01-23 01:13:00,
2013-01-22 20:18:00,13.3,0.9,30.23,West,270,3.8,5.8,57,0.00,CLR,SKC,0.00,WeatherDisplay:10.37,2013-01-23 01:18:00,
2013-01-22 20:23:00,13.3,0.9,30.23,WSW,248,3.5,5.8,57,0.00,CLR,SKC,0.00,WeatherDisplay:10.37,2013-01-23 01:23:00,
2013-01-22 20:28:00,13.3,0.9,30.23,West,270,5.2,5.8,57,0.00,CLR,SKC,0.00,WeatherDisplay:10.37,2013-01-23 01:28:00,
2013-01-22 20:33:00,13.5,1.0,30.23,West,270,3.2,8.5,57,0.00,CLR,SKC,0.00,WeatherDisplay:10.37,2013-01-23 01:33:00,
2013-01-22 20:38:00,13.6,1.2,30.23,West,270,2.6,4.6,57,0.00,CLR,SKC,0.00,WeatherDisplay:10.37,2013-01-23 01:38:00,
2013-01-22 20:43:00,13.6,1.2,30.23,WSW,248,3.1,8.9,57,0.00,CLR,SKC,0.00,WeatherDisplay:10.37,2013-01-23 01:43:00,
2013-01-22 20:48:00,13.6,1.6,30.23,West,270,6.1,10.4,58,0.00,CLR,SKC,0.00,WeatherDisplay:10.37,2013-01-23 01:48:00,
2013-01-22 20:53:00,13.5,1.4,30.23,West,270,5.1,8.1,58,0.00,CLR,SKC,0.00,WeatherDisplay:10.37,2013-01-23 01:53:00,
2013-01-22 20:58:00,13.6,1.6,30.23,West,270,6.3,8.1,58,0.00,CLR,SKC,0.00,WeatherDisplay:10.37,2013-01-23 01:58:00,
2013-01-22 21:03:00,13.6,1.6,30.23,West,270,2.8,4.2,58,0.00,CLR,SKC,0.00,WeatherDisplay:10.37,2013-01-23 02:03:00,
2013-01-22 21:08:00,13.6,1.6,30.23,SW,225,6.1,12.7,58,0.00,CLR,SKC,0.00,WeatherDisplay:10.37,2013-01-23 02:08:00,
2013-01-22 21:13:00,13.6,1.6,30.23,SW,225,6.5,9.2,58,0.00,CLR,SKC,0.00,WeatherDisplay:10.37,2013-01-23 02:13:00,
2013-01-22 21:18:00,13.6,1.6,30.22,West,270,4.9,5.8,58,0.00,CLR,SKC,0.00,WeatherDisplay:10.37,2013-01-23 02:18:00,
2013-01-22 21:23:00,13.3,1.2,30.23,SW,225,5.2,8.1,58,0.00,CLR,SKC,0.00,WeatherDisplay:10.37,2013-01-23 02:23:00,
2013-01-22 21:28:00,13.3,1.2,30.23,West,270,5.9,8.5,58,0.00,CLR,SKC,0.00,WeatherDisplay:10.37,2013-01-23 02:28:00,
2013-01-22 21:33:00,13.3,1.2,30.23,West,270,3.3,6.9,58,0.00,CLR,SKC,0.00,WeatherDisplay:10.37,2013-01-23 02:33:00,
2013-01-22 21:38:00,13.3,1.2,30.23,West,270,4.9,8.1,58,0.00,CLR,SKC,0.00,WeatherDisplay:10.37,2013-01-23 02:38:00,
2013-01-22 21:43:00,13.3,1.2,30.24,WSW,248,5.9,6.9,58,0.00,CLR,SKC,0.00,WeatherDisplay:10.37,2013-01-23 02:43:00,
2013-01-22 21:48:00,13.3,1.2,30.24,WSW,248,5.9,6.9,58,0.00,CLR,SKC,0.00,WeatherDisplay:10.37,2013-01-23 02:48:00,
2013-01-22 21:53:00,13.3,1.2,30.24,West,270,3.1,4.6,58,0.00,CLR,SKC,0.00,WeatherDisplay:10.37,2013-01-23 02:53:00,
2013-01-22 21:58:00,13.3,1.2,30.24,WSW,248,3.3,6.9,58,0.00,CLR,SKC,0.00,WeatherDisplay:10.37,2013-01-23 02:58:00,
2013-01-22 22:03:00,13.3,1.2,30.24,WSW,248,3.5,5.1,58,0.00,CLR,SKC,0.00,WeatherDisplay:10.37,2013-01-23 03:03:00,
2013-01-22 22:08:00,13.3,1.2,30.23,WSW,248,2.0,6.9,58,0.00,CLR,SKC,0.00,WeatherDisplay:10.37,2013-01-23 03:08:00,
2013-01-22 22:13:00,13.3,1.2,30.24,WSW,248,4.8,5.8,58,0.00,CLR,SKC,0.00,WeatherDisplay:10.37,2013-01-23 03:13:00,
2013-01-22 22:18:00,13.3,1.2,30.24,West,270,2.5,9.2,58,0.00,CLR,SKC,0.00,WeatherDisplay:10.37,2013-01-23 03:18:00,
2013-01-22 22:23:00,13.3,1.2,30.24,West,270,6.4,8.1,58,0.00,CLR,SKC,0.00,WeatherDisplay:10.37,2013-01-23 03:23:00,
2013-01-22 22:28:00,13.3,1.2,30.24,West,270,4.1,5.8,58,0.00,CLR,SKC,0.00,WeatherDisplay:10.37,2013-01-23 03:28:00,
2013-01-22 22:33:00,13.1,1.4,30.25,WNW,292,7.9,9.2,59,0.00,CLR,SKC,0.00,WeatherDisplay:10.37,2013-01-23 03:33:00,
2013-01-22 22:38:00,13.1,1.4,30.25,West,270,4.4,9.2,59,0.00,CLR,SKC,0.00,WeatherDisplay:10.37,2013-01-23 03:38:00,
2013-01-22 22:43:00,12.9,1.3,30.25,WSW,248,4.9,8.3,59,0.00,CLR,SKC,0.00,WeatherDisplay:10.37,2013-01-23 03:43:00,
2013-01-22 22:48:00,12.9,1.3,30.25,West,270,3.1,5.4,59,0.00,CLR,SKC,0.00,WeatherDisplay:10.37,2013-01-23 03:48:00,
2013-01-22 22:53:00,12.7,1.1,30.24,WSW,248,5.0,6.9,59,0.00,CLR,SKC,0.00,WeatherDisplay:10.37,2013-01-23 03:53:00,
2013-01-22 22:58:00,12.7,1.1,30.25,West,270,2.9,5.8,59,0.00,CLR,SKC,0.00,WeatherDisplay:10.37,2013-01-23 03:58:00,
2013-01-22 23:03:00,12.7,1.5,30.25,West,270,4.7,9.2,60,0.00,CLR,SKC,0.00,WeatherDisplay:10.37,2013-01-23 04:03:00,
2013-01-22 23:08:00,12.9,1.6,30.25,West,270,5.0,6.9,60,0.00,CLR,SKC,0.00,WeatherDisplay:10.37,2013-01-23 04:08:00,
2013-01-22 23:13:00,12.9,1.6,30.25,West,270,4.5,8.1,60,0.00,CLR,SKC,0.00,WeatherDisplay:10.37,2013-01-23 04:13:00,
2013-01-22 23:18:00,13.1,1.8,30.25,West,270,5.2,7.6,60,0.00,CLR,SKC,0.00,WeatherDisplay:10.37,2013-01-23 04:18:00,
2013-01-22 23:23:00,13.1,1.8,30.24,West,270,3.8,8.1,60,0.00,CLR,SKC,0.00,WeatherDisplay:10.37,2013-01-23 04:23:00,
2013-01-22 23:28:00,13.3,2.0,30.24,WSW,248,5.3,8.1,60,0.00,CLR,SKC,0.00,WeatherDisplay:10.37,2013-01-23 04:28:00,
2013-01-22 23:33:00,13.1,1.8,30.24,West,270,5.4,10.4,60,0.00,CLR,SKC,0.00,WeatherDisplay:10.37,2013-01-23 04:33:00,
2013-01-22 23:38:00,13.1,1.8,30.24,West,270,6.9,9.2,60,0.00,CLR,SKC,0.00,WeatherDisplay:10.37,2013-01-23 04:38:00,
2013-01-22 23:43:00,13.3,2.0,30.24,West,270,3.6,8.1,60,0.00,CLR,SKC,0.00,WeatherDisplay:10.37,2013-01-23 04:43:00,
2013-01-22 23:48:00,13.3,2.0,30.24,West,270,6.7,9.2,60,0.00,CLR,SKC,0.00,WeatherDisplay:10.37,2013-01-23 04:48:00,
2013-01-22 23:53:00,13.3,2.0,30.24,West,270,3.2,8.3,60,0.00,CLR,SKC,0.00,WeatherDisplay:10.37,2013-01-23 04:53:00,
2013-01-22 23:58:00,13.3,2.0,30.24,WSW,248,8.6,15.0,60,0.00,CLR,SKC,0.00,WeatherDisplay:10.37,2013-01-23 04:58:00,